| time (UTC) | temp C | wind direction | speed KPH | gust KPH | rain 1hr cm | rain 24hr cm | rain mn cm | humidity % | barometer mb |
| 20260510081556 | 7 | 0.0 | 0.0 | 0.00 | 3.99 | 2.31 | 98 | 1010.4 | |
| 20260510080516 | 7 | 0.0 | 0.0 | 0.00 | 4.04 | 2.31 | 98 | 1010.5 | |
| 20260510075516 | 8 | 350 | 0.0 | 1.6 | 0.00 | 4.09 | 2.31 | 99 | 1010.5 |
| 20260510074516 | 8 | 339 | 0.0 | 4.8 | 0.00 | 4.14 | 2.31 | 99 | 1010.5 |
| 20260510073516 | 8 | 277 | 0.0 | 4.8 | 0.00 | 4.22 | 2.31 | 99 | 1010.9 |
| 20260510072516 | 8 | 0.0 | 0.0 | 0.00 | 4.29 | 2.31 | 99 | 1011.2 | |
| 20260510071516 | 8 | 0.0 | 0.0 | 0.00 | 4.37 | 2.31 | 99 | 1011.3 | |
| 20260510070516 | 8 | 0.0 | 0.0 | 0.00 | 4.45 | 2.31 | 99 | 1011.4 | |
| 20260510065516 | 8 | 234 | 1.6 | 3.2 | 0.00 | 4.50 | 2.31 | 99 | 1011.5 |
| 20260510064536 | 8 | 0.0 | 0.0 | 0.00 | 4.55 | 2.31 | 98 | 1011.8 | |
| 20260510063516 | 8 | 0.0 | 0.0 | 0.00 | 4.62 | 2.31 | 99 | 1011.9 | |
| 20260510062516 | 8 | 0.0 | 1.6 | 0.00 | 4.62 | 2.31 | 99 | 1011.9 | |
| 20260510061536 | 8 | 230 | 1.6 | 4.8 | 0.00 | 4.62 | 2.31 | 99 | 1012.1 |
| 20260510060516 | 8 | 212 | 1.6 | 9.7 | 0.00 | 4.62 | 2.31 | 99 | 1012.1 |
| 20260510055516 | 7 | 266 | 1.6 | 4.8 | 0.00 | 4.62 | 2.31 | 99 | 1012.1 |
| 20260510054516 | 7 | 0.0 | 0.0 | 0.00 | 4.62 | 2.31 | 98 | 1011.8 | |
| 20260510053516 | 7 | 0.0 | 0.0 | 0.00 | 4.62 | 2.31 | 98 | 1011.6 | |
| 20260510052516 | 7 | 0.0 | 0.0 | 0.00 | 4.62 | 2.31 | 98 | 1011.3 | |
| 20260510051516 | 8 | 0.0 | 0.0 | 0.00 | 4.62 | 2.31 | 98 | 1011.4 | |
| 20260510050516 | 8 | 0.0 | 0.0 | 0.00 | 4.62 | 2.31 | 98 | 1011.4 | |
| 20260510045516 | 8 | 144 | 0.0 | 4.8 | 0.00 | 4.62 | 2.31 | 98 | 1011.5 |
| 20260510044516 | 8 | 206 | 1.6 | 8.0 | 0.00 | 4.62 | 2.31 | 97 | 1011.5 |
| 20260510043516 | 8 | 177 | 1.6 | 9.7 | 0.00 | 4.62 | 2.31 | 97 | 1011.6 |
| 20260510042516 | 8 | 219 | 3.2 | 14.5 | 0.00 | 4.62 | 2.31 | 97 | 1011.4 |
| 20260510041516 | 8 | 216 | 4.8 | 11.3 | 0.00 | 4.62 | 2.31 | 97 | 1011.0 |
| 20260510040516 | 8 | 216 | 4.8 | 9.7 | 0.00 | 4.62 | 2.31 | 97 | 1011.0 |
| 20260510035516 | 8 | 206 | 4.8 | 9.7 | 0.00 | 4.62 | 2.31 | 97 | 1011.0 |
| 20260510034536 | 8 | 244 | 3.2 | 8.0 | 0.00 | 4.62 | 2.31 | 97 | 1011.0 |
| 20260510033536 | 8 | 204 | 4.8 | 16.1 | 0.00 | 4.62 | 2.31 | 98 | 1011.0 |
| 20260510032556 | 8 | 180 | 6.4 | 14.5 | 0.00 | 4.62 | 2.31 | 98 | 1011.0 |
| 20260510031537 | 8 | 201 | 3.2 | 8.0 | 0.00 | 4.62 | 2.31 | 98 | 1011.0 |
| 20260510030536 | 8 | 199 | 4.8 | 11.3 | 0.00 | 4.62 | 2.31 | 98 | 1011.1 |
| 20260510025516 | 8 | 224 | 6.4 | 16.1 | 0.00 | 4.62 | 2.31 | 98 | 1011.1 |
| 20260510024516 | 8 | 178 | 3.2 | 8.0 | 0.00 | 4.62 | 2.31 | 97 | 1010.9 |
| 20260510023516 | 8 | 166 | 1.6 | 4.8 | 0.00 | 4.62 | 2.31 | 96 | 1010.8 |
| 20260510022516 | 8 | 166 | 0.0 | 4.8 | 0.00 | 4.62 | 2.31 | 96 | 1010.7 |
| 20260510021516 | 8 | 216 | 3.2 | 9.7 | 0.00 | 4.62 | 2.31 | 96 | 1010.7 |
| 20260510020516 | 8 | 229 | 3.2 | 9.7 | 0.00 | 4.62 | 2.31 | 96 | 1010.9 |
| 20260510015517 | 8 | 190 | 3.2 | 9.7 | 0.00 | 4.62 | 2.31 | 96 | 1010.7 |
| 20260510014516 | 8 | 207 | 1.6 | 9.7 | 0.00 | 4.62 | 2.31 | 96 | 1010.5 |
| 20260510013516 | 8 | 264 | 1.6 | 8.0 | 0.00 | 4.62 | 2.31 | 96 | 1010.7 |
| 20260510012516 | 9 | 169 | 3.2 | 9.7 | 0.00 | 4.62 | 2.31 | 96 | 1010.6 |
| 20260510011516 | 9 | 219 | 3.2 | 8.0 | 0.00 | 4.62 | 2.31 | 96 | 1010.6 |
| 20260510010516 | 8 | 183 | 4.8 | 11.3 | 0.00 | 4.62 | 2.31 | 96 | 1010.6 |
| 20260510005515 | 8 | 191 | 3.2 | 9.7 | 0.00 | 4.62 | 2.31 | 96 | 1010.6 |
| 20260510004515 | 9 | 173 | 1.6 | 11.3 | 0.00 | 4.62 | 2.31 | 96 | 1010.4 |
| 20260510003514 | 9 | 181 | 3.2 | 9.7 | 0.00 | 4.62 | 2.31 | 96 | 1010.4 |
| 20260510002515 | 9 | 189 | 4.8 | 11.3 | 0.00 | 4.62 | 2.31 | 95 | 1009.9 |
| 20260510001515 | 9 | 208 | 4.8 | 16.1 | 0.00 | 4.62 | 2.31 | 95 | 1009.9 |
| 20260510000514 | 9 | 190 | 0.0 | 8.0 | 0.00 | 4.62 | 2.31 | 95 | 1009.8 |
| 20260509235515 | 9 | 212 | 1.6 | 9.7 | 2.31 | 4.62 | 2.31 | 95 | 1009.7 |
| 20260509234515 | 9 | 218 | 1.6 | 6.4 | 2.31 | 4.62 | 2.31 | 95 | 1009.6 |
| 20260509233515 | 9 | 193 | 3.2 | 9.7 | 2.31 | 4.62 | 2.31 | 95 | 1009.5 |
| 20260509232515 | 9 | 201 | 4.8 | 9.7 | 2.31 | 4.62 | 2.31 | 94 | 1009.4 |
| 20260509231515 | 9 | 188 | 3.2 | 11.3 | 2.31 | 4.62 | 2.31 | 94 | 1009.3 |
| 20260509230515 | 9 | 186 | 3.2 | 8.0 | 2.31 | 4.62 | 2.31 | 95 | 1009.2 |
| 20260509225515 | 10 | 203 | 3.2 | 8.0 | 0.00 | 2.31 | 2.31 | 94 | 1009.2 |
| 20260509224515 | 10 | 188 | 3.2 | 9.7 | 0.00 | 2.31 | 2.31 | 93 | 1009.1 |
| 20260509223515 | 10 | 191 | 4.8 | 11.3 | 0.00 | 2.31 | 2.31 | 93 | 1009.1 |
| 20260509222515 | 10 | 198 | 4.8 | 9.7 | 0.00 | 2.31 | 2.31 | 94 | 1009.2 |
| 20260509221514 | 10 | 182 | 4.8 | 11.3 | 0.00 | 2.31 | 2.31 | 94 | 1009.3 |
| 20260509220515 | 9 | 205 | 3.2 | 6.4 | 0.00 | 2.31 | 2.31 | 95 | 1009.4 |
| 20260509215515 | 9 | 176 | 4.8 | 14.5 | 0.00 | 2.31 | 2.31 | 94 | 1009.6 |
| 20260509214537 | 9 | 211 | 4.8 | 9.7 | 0.00 | 2.31 | 2.31 | 95 | 1009.6 |
| 20260509213516 | 9 | 242 | 4.8 | 12.9 | 0.03 | 2.31 | 2.31 | 97 | 1009.6 |
| 20260509212516 | 8 | 195 | 6.4 | 12.9 | 0.03 | 2.31 | 2.31 | 97 | 1009.6 |
| 20260509211516 | 8 | 208 | 6.4 | 14.5 | 0.03 | 2.31 | 2.31 | 97 | 1009.8 |
| 20260509210516 | 8 | 198 | 3.2 | 11.3 | 0.05 | 2.31 | 2.31 | 97 | 1009.9 |
| 20260509205516 | 8 | 182 | 4.8 | 12.9 | 0.05 | 2.31 | 2.31 | 97 | 1009.9 |
| 20260509204516 | 8 | 188 | 6.4 | 14.5 | 0.08 | 2.31 | 2.31 | 96 | 1010.0 |
| 20260509203516 | 8 | 179 | 6.4 | 16.1 | 0.08 | 2.29 | 2.29 | 97 | 1010.1 |
| 20260509202516 | 8 | 258 | 9.7 | 11.3 | 0.10 | 2.29 | 2.29 | 96 | 1010.2 |
| 20260509201516 | 8 | 189 | 6.4 | 19.3 | 0.10 | 2.29 | 2.29 | 96 | 1010.4 |
| 20260509200556 | 8 | 172 | 6.4 | 16.1 | 0.10 | 2.26 | 2.26 | 97 | 1010.5 |
| 20260509195516 | 8 | 200 | 9.7 | 25.7 | 0.13 | 2.26 | 2.26 | 96 | 1010.6 |
| 20260509194536 | 8 | 187 | 4.8 | 17.7 | 0.13 | 2.24 | 2.24 | 96 | 1010.7 |
| 20260509193516 | 8 | 175 | 6.4 | 24.1 | 0.13 | 2.21 | 2.21 | 95 | 1010.7 |
| 20260509192556 | 8 | 186 | 8.0 | 19.3 | 0.13 | 2.18 | 2.18 | 96 | 1010.9 |
| 20260509191516 | 8 | 177 | 8.0 | 29.0 | 0.15 | 2.18 | 2.18 | 96 | 1010.9 |
| 20260509190516 | 8 | 184 | 6.4 | 24.1 | 0.18 | 2.16 | 2.16 | 96 | 1010.9 |
| 20260509185516 | 8 | 189 | 9.7 | 22.5 | 0.18 | 2.13 | 2.13 | 96 | 1010.9 |
| 20260509184515 | 8 | 176 | 8.0 | 22.5 | 0.18 | 2.11 | 2.11 | 97 | 1010.9 |
| 20260509183515 | 8 | 172 | 4.8 | 17.7 | 0.20 | 2.08 | 2.08 | 97 | 1010.9 |
| 20260509182515 | 8 | 174 | 8.0 | 16.1 | 0.20 | 2.06 | 2.06 | 97 | 1010.9 |
| 20260509181515 | 8 | 178 | 9.7 | 22.5 | 0.23 | 2.03 | 2.03 | 97 | 1010.9 |
| 20260509180515 | 8 | 198 | 6.4 | 20.9 | 0.20 | 1.98 | 1.98 | 97 | 1010.7 |
| 20260509175515 | 8 | 190 | 8.0 | 19.3 | 0.20 | 1.96 | 1.96 | 97 | 1010.7 |
| 20260509174515 | 7 | 172 | 8.0 | 17.7 | 0.20 | 1.93 | 1.93 | 97 | 1010.6 |
| 20260509173515 | 7 | 158 | 6.4 | 16.1 | 0.20 | 1.88 | 1.88 | 97 | 1010.7 |
| 20260509172515 | 7 | 183 | 4.8 | 8.0 | 0.20 | 1.85 | 1.85 | 97 | 1010.7 |
| 20260509171515 | 7 | 198 | 4.8 | 17.7 | 0.18 | 1.80 | 1.80 | 96 | 1010.8 |
| 20260509170515 | 7 | 203 | 6.4 | 14.5 | 0.20 | 1.78 | 1.78 | 96 | 1010.7 |
| 20260509165515 | 8 | 167 | 4.8 | 12.9 | 0.18 | 1.75 | 1.75 | 97 | 1010.7 |
| 20260509164515 | 8 | 178 | 4.8 | 14.5 | 0.18 | 1.73 | 1.73 | 97 | 1010.8 |
| 20260509163515 | 7 | 181 | 4.8 | 12.9 | 0.13 | 1.68 | 1.68 | 97 | 1010.9 |
| 20260509162515 | 7 | 150 | 4.8 | 12.9 | 0.13 | 1.65 | 1.65 | 97 | 1011.2 |
| 20260509161515 | 7 | 171 | 4.8 | 9.7 | 0.15 | 1.63 | 1.63 | 97 | 1011.3 |
| 20260509160515 | 7 | 171 | 3.2 | 9.7 | 0.13 | 1.57 | 1.57 | 97 | 1011.3 |
| 20260509155515 | 7 | 210 | 3.2 | 8.0 | 0.15 | 1.57 | 1.57 | 97 | 1011.5 |
| 20260509154515 | 7 | 171 | 4.8 | 11.3 | 0.15 | 1.55 | 1.55 | 97 | 1011.6 |
| 20260509153515 | 7 | 172 | 3.2 | 8.0 | 0.15 | 1.55 | 1.55 | 97 | 1011.7 |
| 20260509152515 | 7 | 128 | 4.8 | 9.7 | 0.15 | 1.52 | 1.52 | 97 | 1011.9 |
| 20260509151515 | 7 | 172 | 3.2 | 9.7 | 0.13 | 1.47 | 1.47 | 97 | 1012.0 |
| 20260509150515 | 7 | 156 | 4.8 | 11.3 | 0.13 | 1.45 | 1.45 | 96 | 1012.0 |
| 20260509145515 | 7 | 151 | 4.8 | 12.9 | 0.13 | 1.42 | 1.42 | 96 | 1012.0 |
| 20260509144515 | 6 | 155 | 6.4 | 16.1 | 0.13 | 1.40 | 1.40 | 96 | 1011.9 |
| 20260509143515 | 6 | 148 | 6.4 | 14.5 | 0.15 | 1.40 | 1.40 | 96 | 1011.9 |
| 20260509142515 | 6 | 145 | 6.4 | 12.9 | 0.15 | 1.37 | 1.37 | 96 | 1012.0 |
| 20260509141555 | 6 | 144 | 8.0 | 16.1 | 0.15 | 1.35 | 1.35 | 96 | 1012.0 |
| 20260509140515 | 6 | 168 | 6.4 | 14.5 | 0.13 | 1.32 | 1.32 | 96 | 1012.0 |
| 20260509135515 | 6 | 150 | 8.0 | 16.1 | 0.10 | 1.30 | 1.30 | 95 | 1012.0 |
| 20260509134515 | 6 | 143 | 8.0 | 16.1 | 0.08 | 1.27 | 1.27 | 95 | 1012.0 |
| 20260509133515 | 6 | 151 | 6.4 | 22.5 | 0.05 | 1.24 | 1.24 | 94 | 1011.8 |
| 20260509132535 | 6 | 149 | 6.4 | 16.1 | 0.03 | 1.22 | 1.22 | 94 | 1011.7 |
| 20260509131515 | 6 | 138 | 6.4 | 14.5 | 0.00 | 1.19 | 1.19 | 94 | 1011.7 |
| 20260509130515 | 6 | 156 | 3.2 | 11.3 | 0.00 | 1.19 | 1.19 | 94 | 1011.7 |
| 20260509125515 | 6 | 137 | 4.8 | 11.3 | 0.00 | 1.19 | 1.19 | 95 | 1011.7 |
| 20260509124535 | 6 | 137 | 3.2 | 12.9 | 0.00 | 1.19 | 1.19 | 95 | 1011.7 |
| 20260509123515 | 6 | 142 | 3.2 | 6.4 | 0.00 | 1.19 | 1.19 | 96 | 1012.0 |
| 20260509122516 | 6 | 133 | 3.2 | 6.4 | 0.00 | 1.19 | 1.19 | 97 | 1011.9 |
| 20260509121516 | 6 | 124 | 3.2 | 6.4 | 0.03 | 1.19 | 1.19 | 97 | 1012.0 |
| 20260509120516 | 6 | 151 | 3.2 | 8.0 | 0.03 | 1.19 | 1.19 | 97 | 1012.0 |
| 20260509115516 | 6 | 116 | 1.6 | 6.4 | 0.03 | 1.19 | 1.19 | 98 | 1012.1 |
| 20260509114516 | 6 | 122 | 1.6 | 11.3 | 0.05 | 1.19 | 1.19 | 98 | 1012.1 |
| 20260509113516 | 6 | 138 | 3.2 | 6.4 | 0.05 | 1.19 | 1.19 | 98 | 1012.0 |
| 20260509112516 | 6 | 110 | 1.6 | 6.4 | 0.08 | 1.19 | 1.19 | 98 | 1012.1 |
| 20260509111516 | 6 | 55 | 1.6 | 6.4 | 0.08 | 1.17 | 1.17 | 98 | 1012.2 |
| 20260509110516 | 6 | 185 | 1.6 | 4.8 | 0.10 | 1.17 | 1.17 | 98 | 1012.1 |
| 20260509105516 | 6 | 185 | 1.6 | 3.2 | 0.15 | 1.17 | 1.17 | 98 | 1012.2 |
| 20260509104516 | 6 | 185 | 1.6 | 4.8 | 0.13 | 1.14 | 1.14 | 98 | 1012.2 |
| 20260509103516 | 6 | 185 | 0.0 | 3.2 | 0.18 | 1.14 | 1.14 | 98 | 1012.2 |
| 20260509102516 | 6 | 185 | 0.0 | 1.6 | 0.18 | 1.12 | 1.12 | 98 | 1012.1 |
| 20260509101516 | 6 | 185 | 0.0 | 3.2 | 0.18 | 1.09 | 1.09 | 98 | 1012.0 |
| 20260509100536 | 6 | 185 | 1.6 | 4.8 | 0.20 | 1.07 | 1.07 | 98 | 1012.0 |
| 20260509095516 | 6 | 185 | 0.0 | 6.4 | 0.18 | 1.02 | 1.02 | 98 | 1012.0 |
| 20260509094516 | 6 | 0.0 | 0.0 | 0.23 | 1.02 | 1.02 | 98 | 1012.1 | |
| 20260509093516 | 6 | 0.0 | 3.2 | 0.20 | 0.97 | 0.97 | 98 | 1012.2 | |
| 20260509092535 | 5 | 211 | 1.6 | 3.2 | 0.25 | 0.94 | 0.94 | 98 | 1012.1 |
| 20260509091535 | 5 | 211 | 0.0 | 4.8 | 0.28 | 0.91 | 0.91 | 98 | 1012.1 |
| 20260509090515 | 5 | 211 | 0.0 | 3.2 | 0.28 | 0.86 | 0.86 | 98 | 1012.1 |
| 20260509085535 | 5 | 211 | 0.0 | 3.2 | 0.30 | 0.84 | 0.84 | 97 | 1012.1 |
| 20260509084515 | 5 | 211 | 1.6 | 4.8 | 0.30 | 0.79 | 0.79 | 97 | 1012.0 |
| 20260509083515 | 5 | 211 | 0.0 | 3.2 | 0.36 | 0.76 | 0.76 | 97 | 1012.3 |
| 20260509082515 | 5 | 211 | 1.6 | 3.2 | 0.36 | 0.69 | 0.69 | 97 | 1012.5 |